Millville Municipal Airport

Jump to: basic info | weather | frequencies | runways | comments

Related pages: nearby airports | nearby navaids | notams | map

Basic information (top)

Codes: KMIV MIV
Location: lon 39.367802, lat -75.072197, elev 85 ft / 26 m msl
Status: medium_airport
Scheduled airline service: no
Links: Wikipedia Mobile

Weather (top)

Current conditions (rec'd 2014/09/01 17:54Z):

KMIV 011754Z AUTO 25005KT 10SM BKN033 BKN043 BKN050 30/22 A2998

Airport forecast (rec'd 2014/09/01 18:42Z):

TAF KMIV 011738Z 0118/0218 24007KT P6SM SCT030 
      TEMPO 0120/0124 5SM -SHRA 
     FM020000 VRB03KT P6SM SCT040 SCT100 
     FM020500 VRB02KT 5SM BR SCT100 
     FM021400 26006KT P6SM SCT200

Frequencies (top)

Verify before use: may be inaccurate or out of date.

A/D: 124.6 MHz (APP/DEP)
ASOS: 128.125 MHz (ASOS)
CTAF: 123.65 MHz (CTAF)
RDO: 123.65 MHz (RDO)
UNIC: 123 MHz (UNICOM)

Runways (top)

10/28: 6,002 x 150 ft (1,829 x 46 m) — paved — lighted

14/32: 5,057 x 150 ft (1,541 x 46 m) — paved — lighted

Latest comments (top)

No comments yet for Millville Municipal Airport

More... (top)

See also NOTAMs and nearby airports and navaids, or visit the Millville Municipal Airport page at the main OurAirports website..